FALCON 9 DEB (49777 NORAD) Tracking and Keplerian Element Data
This shows tracking and keplerian element data for the satellite.
Feedback or suggestion? Click here.
Element | Value |
Catalog | 49777 |
Name | FALCON 9 DEB |
Epoch Orbit | 2623 |
Epoch Day | 140.44486537 |
Epoch Year | 2022 |
RAAN | 235.3525 |
Inclination | 53.2058 |
Eccentricity | 0.0010531 |
Argument of Perigee | 82.7795 |
Mean Anonmoly | 277.4412 |
Mean Motion | 15.50525143 |
Decay Rate | 0.00029894 |
L1 | 1 49777U 21115BF 22140.44486537 .00029894 00000+0 51976-3 0 9996 |
L2 | 2 49777 53.2058 235.3525 0010531 82.7795 277.4412 15.50525143 26233 |
Live tracking and technical data element details for FALCON 9 DEB (NORAD 49777). FALCON 9 DEB can be tracked NOW for your location showing map with azimuth and elevation plus other details from your city location.
Track the satellite on the map from your city or location and see movement details for azimuth, elevation, latitude, longitude, range, height, and movement on the map or in text.
IsCatalogInMostPopularTable: catalog: 49777, numindb: 24
Update: records affected: 1
GetName: 49777 FALCON 9 DEB
Hit Count: updated at: Mon, 23 May 2022 19:55:15 GMT